EW6430 Weather Reports


time (UTC)temp
C
wind
direction
speed
KPH
gust
KPH
rain 1hr
cm
rain 24hr
cm
rain mn
cm
humidity
%
barometer
mb
20260901012043 16 249 0.0 3.2 0.00 0.00 0.00 87 1014.9
20260901011529 16 249 0.0 3.2 0.00 0.00 0.00 86 1015.0
20260901011502 16 249 0.0 3.2 0.00 0.00 0.00 86 1014.5
20260901011012 17 249 1.6 6.4 0.00 0.00 0.00 86 1015.0
20260901010455 17 249 3.2 6.4 0.00 0.00 0.00 86 1015.0
20260901010033 17 244 1.6 6.4 0.00 0.00 0.00 87 1014.6
20260901005943 17 244 4.8 6.4 0.00 0.00 0.00 87 1015.0
20260901005428 17 240 3.2 6.4 0.00 0.00 0.00 88 1015.0
20260901004915 17 241 3.2 4.8 0.00 0.00 0.00 90 1015.1
20260901004542 16 248 1.6 4.8 0.00 0.00 0.00 91 1014.6
20260901004404 17 248 3.2 4.8 0.00 0.00 0.00 92 1015.0
20260901003858 16 248 3.2 6.4 0.00 0.00 0.00 94 1015.0
20260901003348 16 251 1.6 6.4 0.00 0.00 0.00 96 1015.1
20260901003023 16 251 1.6 4.8 0.00 0.00 0.00 96 1014.6
20260901002844 16 254 1.6 4.8 0.00 0.00 0.00 97 1015.0
20260901002340 16 254 1.6 4.8 0.00 0.00 0.00 97 1015.1
20260901001505 15 264 3.2 4.8 0.00 0.00 0.00 97 1014.8
20260901001328 15 281 1.6 4.8 0.00 0.00 0.00 97 1015.2
20260901000823 15 288 1.6 4.8 0.00 0.00 0.00 97 1015.2
20260901000314 15 290 1.6 4.8 0.00 0.00 0.00 97 1015.2
20260901000044 15 290 0.0 4.8 0.00 0.00 0.00 97 1014.7
20260831235801 15 296 0.0 4.8 0.00 0.00 0.00 97 1015.2
20260831235253 15 298 0.0 0.0 0.00 0.00 0.00 97 1015.2
20260831234744 15 298 0.0 0.0 0.00 0.00 0.00 97 1015.3
20260831234516 15 298 0.0 0.0 0.00 0.00 0.00 97 1014.9
20260831234231 15 298 0.0 0.0 0.00 0.00 0.00 97 1015.4
20260831233730 15 298 0.0 0.0 0.00 0.00 0.00 97 1015.4
20260831233218 15 298 0.0 0.0 0.00 0.00 0.00 97 1015.4
20260831233052 15 298 0.0 0.0 0.00 0.00 0.00 97 1015.0
20260831232709 15 298 0.0 0.0 0.00 0.00 0.00 97 1015.4
20260831232159 15 298 0.0 0.0 0.00 0.00 0.00 97 1015.4
20260831231700 15 298 0.0 0.0 0.00 0.00 0.00 97 1015.4
20260831231537 15 298 0.0 0.0 0.00 0.00 0.00 97 1015.0
20260831231155 15 298 0.0 1.6 0.00 0.00 0.00 97 1015.4
20260831230135 15 298 0.0 1.6 0.00 0.00 0.00 96 1015.6
20260831230017 15 298 0.0 1.6 0.00 0.00 0.00 96 1015.2
20260831225631 15 298 0.0 1.6 0.00 0.00 0.00 96 1015.6
20260831225134 15 298 0.0 1.6 0.00 0.00 0.00 96 1015.6
20260831224626 15 298 0.0 0.0 0.00 0.00 0.00 96 1015.6
20260831224116 15 298 0.0 1.6 0.00 0.00 0.00 96 1015.5
20260831223055 15 298 0.0 1.6 0.00 0.00 0.00 96 1015.6
20260831223029 15 298 0.0 1.6 0.00 0.00 0.00 96 1015.2
20260831222545 15 298 0.0 1.6 0.00 0.00 0.00 96 1015.5
20260831222030 15 298 0.0 1.6 0.00 0.00 0.00 96 1015.6
20260831221558 15 298 0.0 1.6 0.00 0.00 0.00 96 1015.1
20260831221522 15 298 0.0 1.6 0.00 0.00 0.00 96 1015.6
20260831221007 15 298 0.0 1.6 0.00 0.00 0.00 96 1015.5
20260831220455 15 298 0.0 1.6 0.00 0.00 0.00 96 1015.5
20260831220030 15 298 0.0 1.6 0.00 0.00 0.00 96 1015.0
20260831215956 15 298 0.0 0.0 0.00 0.00 0.00 96 1015.5
20260831214939 15 298 0.0 1.6 0.00 0.00 0.00 96 1015.4
20260831214506 15 298 0.0 0.0 0.00 0.00 0.00 95 1014.9
20260831214429 15 298 0.0 0.0 0.00 0.00 0.00 95 1015.3
20260831213923 15 298 0.0 0.0 0.00 0.00 0.00 95 1015.3
20260831213411 15 298 0.0 3.2 0.00 0.00 0.00 95 1015.4
20260831213143 15 298 0.0 0.0 0.00 0.00 0.00 95 1014.9
20260831212902 15 298 0.0 3.2 0.00 0.00 0.00 95 1015.4
20260831212340 15 298 0.0 3.2 0.00 0.00 0.00 95 1015.3
20260831211832 15 298 0.0 3.2 0.00 0.00 0.00 95 1015.2
20260831211508 15 298 0.0 3.2 0.00 0.00 0.00 95 1014.8
20260831210822 15 298 0.0 1.6 0.00 0.00 0.00 95 1015.0
20260831210316 15 298 0.0 1.6 0.00 0.00 0.00 95 1014.9
20260831210100 15 298 0.0 1.6 0.00 0.00 0.00 95 1014.5
20260831205811 15 298 0.0 1.6 0.00 0.00 0.00 95 1014.9
20260831205312 15 298 0.0 1.6 0.00 0.00 0.00 95 1014.9
20260831204534 15 298 0.0 1.6 0.00 0.00 0.00 94 1014.4
20260831204255 16 298 0.0 3.2 0.00 0.00 0.00 94 1014.8
20260831203741 16 298 1.6 3.2 0.00 0.00 0.00 94 1015.0
20260831203114 15 298 0.0 3.2 0.00 0.00 0.00 94 1014.2
20260831202712 16 298 0.0 1.6 0.00 0.00 0.00 94 1014.5
20260831201650 16 298 0.0 0.0 0.00 0.00 0.00 94 1014.5
20260831201525 16 298 0.0 0.0 0.00 0.00 0.00 94 1014.0
20260831200616 16 298 0.0 1.6 0.00 0.00 0.00 93 1014.5
20260831200107 16 298 0.0 1.6 0.00 0.00 0.00 93 1014.5
20260831200043 16 298 0.0 1.6 0.00 0.00 0.00 93 1014.0
20260831195035 16 298 0.0 0.0 0.00 0.00 0.00 92 1014.6
20260831194637 16 298 0.0 0.0 0.00 0.00 0.00 92 1014.0
20260831194523 16 298 0.0 0.0 0.00 0.00 0.00 92 1014.5
20260831193031 17 298 0.0 3.2 0.00 0.00 0.00 92 1013.9
20260831192431 17 298 0.0 3.2 0.00 0.00 0.00 91 1014.4
20260831191917 17 298 0.0 0.0 0.00 0.00 0.00 91 1014.3
20260831191544 17 298 0.0 0.0 0.00 0.00 0.00 91 1013.7
20260831191405 17 298 0.0 0.0 0.00 0.00 0.00 91 1014.3
20260831190851 17 298 0.0 0.0 0.00 0.00 0.00 90 1014.3
20260831190344 17 298 0.0 0.0 0.00 0.00 0.00 90 1014.3
20260831190109 17 298 0.0 0.0 0.00 0.00 0.00 90 1013.7
20260831185818 18 298 0.0 0.0 0.00 0.00 0.00 90 1014.3
20260831185306 18 298 0.0 0.0 0.00 0.00 0.00 89 1014.2
20260831184752 18 298 0.0 0.0 0.00 0.00 0.00 89 1014.2
20260831184525 18 298 0.0 0.0 0.00 0.00 0.00 89 1013.7
20260831184242 18 298 0.0 0.0 0.00 0.00 0.00 88 1014.2
20260831183728 18 298 0.0 0.0 0.00 0.00 0.00 88 1014.2
20260831183054 18 298 0.0 0.0 0.00 0.00 0.00 87 1013.6
20260831182659 19 298 0.0 0.0 0.00 0.00 0.00 86 1014.1
20260831182147 19 298 0.0 0.0 0.00 0.00 0.00 86 1014.1
20260831181635 19 298 0.0 0.0 0.00 0.00 0.00 86 1014.1
20260831181508 19 298 0.0 0.0 0.00 0.00 0.00 85 1013.5
20260831181121 20 298 0.0 0.0 0.00 0.00 0.00 85 1014.0
20260831180608 20 298 0.0 1.6 0.00 0.00 0.00 84 1014.0
20260831180033 20 298 0.0 1.6 0.00 0.00 0.00 83 1013.4
20260831175542 20 298 0.0 3.2 0.00 0.00 0.00 82 1013.9
20260831175018 21 298 0.0 3.2 0.00 0.00 0.00 81 1013.7
20260831174548 21 298 0.0 3.2 0.00 0.00 0.00 80 1013.1
20260831174508 21 298 0.0 3.2 0.00 0.00 0.00 80 1013.6
20260831173952 21 298 0.0 1.6 0.00 0.00 0.00 79 1013.6
20260831173438 22 298 0.0 3.2 0.00 0.00 0.00 77 1013.5
20260831173006 22 298 0.0 3.2 0.00 0.00 0.00 76 1012.9
20260831172923 22 298 0.0 4.8 0.00 0.00 0.00 76 1013.4
20260831172415 22 298 0.0 4.8 0.00 0.00 0.00 76 1013.3
20260831171917 22 298 1.6 8.0 0.00 0.00 0.00 76 1013.3
20260831171541 22 298 0.0 8.0 0.00 0.00 0.00 75 1012.7
20260831170845 23 322 1.6 9.7 0.00 0.00 0.00 75 1013.2
20260831170331 23 306 1.6 9.7 0.00 0.00 0.00 74 1013.2
20260831165818 23 309 3.2 9.7 0.00 0.00 0.00 73 1013.2
20260831165305 23 326 4.8 14.5 0.00 0.00 0.00 72 1013.1
20260831164521 23 319 6.4 14.5 0.00 0.00 0.00 71 1012.5
20260831163718 24 310 3.2 6.4 0.00 0.00 0.00 70 1013.0
20260831163158 24 315 3.2 8.0 0.00 0.00 0.00 69 1013.0
20260831163030 24 315 1.6 8.0 0.00 0.00 0.00 69 1012.5
20260831162642 25 312 1.6 6.4 0.00 0.00 0.00 69 1012.9
20260831161616 25 313 1.6 4.8 0.00 0.00 0.00 68 1012.9
20260831161552 25 313 0.0 4.8 0.00 0.00 0.00 68 1012.4
20260831161101 25 313 1.6 4.8 0.00 0.00 0.00 68 1012.8
20260831160031 25 315 1.6 8.0 0.00 0.00 0.00 67 1012.8
20260831160006 25 313 1.6 8.0 0.00 0.00 0.00 68 1012.4
20260831155519 25 315 1.6 4.8 0.00 0.00 0.00 68 1012.8
20260831154532 25 317 1.6 6.4 0.00 0.00 0.00 68 1012.3
20260831154449 25 317 3.2 6.4 0.00 0.00 0.00 67 1012.9
20260831153934 25 322 3.2 6.4 0.00 0.00 0.00 67 1012.9
20260831153419 25 309 1.6 4.8 0.00 0.00 0.00 67 1012.9
20260831153148 25 309 1.6 4.8 0.00 0.00 0.00 68 1012.4
20260831152908 25 309 1.6 4.8 0.00 0.00 0.00 67 1012.9
20260831152352 25 309 1.6 8.0 0.00 0.00 0.00 66 1012.9
20260831151838 26 309 3.2 8.0 0.00 0.00 0.00 66 1012.9
20260831151510 25 309 1.6 9.7 0.00 0.00 0.00 64 1012.4
20260831150842 26 329 3.2 8.0 0.00 0.00 0.00 64 1012.9
20260831150321 26 331 3.2 6.4 0.00 0.00 0.00 65 1012.9
20260831150153 26 331 1.6 8.0 0.00 0.00 0.00 65 1012.5
20260831145808 26 261 3.2 12.9 0.00 0.00 0.00 65 1013.0
20260831145257 26 325 3.2 9.7 0.00 0.00 0.00 65 1013.0
20260831144744 26 302 3.2 12.9 0.00 0.00 0.00 66 1013.0
20260831144514 25 312 1.6 12.9 0.00 0.00 0.00 65 1012.5
20260831144250 26 317 3.2 12.9 0.00 0.00 0.00 66 1013.0
20260831143728 26 316 3.2 8.0 0.00 0.00 0.00 65 1013.1
20260831143059 26 311 3.2 16.1 0.00 0.00 0.00 67 1012.6
20260831142716 26 306 3.2 16.1 0.00 0.00 0.00 65 1013.0
20260831141657 25 240 1.6 8.0 0.00 0.00 0.00 69 1013.0
20260831141538 25 305 1.6 8.0 0.00 0.00 0.00 68 1012.5
20260831141155 25 247 1.6 6.4 0.00 0.00 0.00 68 1013.0
20260831140656 25 314 3.2 8.0 0.00 0.00 0.00 68 1013.0
20260831140152 25 316 4.8 14.5 0.00 0.00 0.00 67 1013.0
20260831140128 25 316 3.2 14.5 0.00 0.00 0.00 67 1012.5
20260831135639 25 241 3.2 14.5 0.00 0.00 0.00 67 1013.0
20260831135140 26 270 3.2 9.7 0.00 0.00 0.00 67 1013.1
20260831134634 26 307 3.2 9.7 0.00 0.00 0.00 69 1013.1
20260831134506 25 310 1.6 9.7 0.00 0.00 0.00 68 1012.6
20260831133550 25 231 3.2 11.3 0.00 0.00 0.00 68 1013.2
20260831133041 25 236 3.2 14.5 0.00 0.00 0.00 69 1013.2
20260831133027 25 236 1.6 14.5 0.00 0.00 0.00 69 1012.7
20260831132531 25 230 4.8 14.5 0.00 0.00 0.00 67 1013.2
20260831132029 25 263 4.8 12.9 0.00 0.00 0.00 68 1013.2
20260831131613 25 254 1.6 9.7 0.00 0.00 0.00 71 1012.6
20260831131523 25 254 4.8 9.7 0.00 0.00 0.00 70 1013.2
20260831131015 25 271 3.2 6.4 0.00 0.00 0.00 71 1013.2
20260831130519 25 311 3.2 11.3 0.00 0.00 0.00 72 1013.3
20260831130040 24 232 3.2 11.3 0.00 0.00 0.00 74 1012.8
20260831125959 25 211 3.2 8.0 0.00 0.00 0.00 75 1013.3
20260831125457 24 304 3.2 12.9 0.00 0.00 0.00 75 1013.4
20260831124933 24 262 3.2 12.9 0.00 0.00 0.00 75 1013.5
20260831124608 23 314 1.6 8.0 0.00 0.00 0.00 75 1013.0
20260831124418 23 303 1.6 8.0 0.00 0.00 0.00 76 1013.5
20260831123908 23 315 1.6 8.0 0.00 0.00 0.00 75 1013.5
20260831123359 23 293 1.6 11.3 0.00 0.00 0.00 75 1013.4
20260831123042 23 275 1.6 11.3 0.00 0.00 0.00 75 1012.9
20260831122859 23 230 1.6 11.3 0.00 0.00 0.00 75 1013.4
20260831122350 23 279 1.6 12.9 0.00 0.00 0.00 75 1013.4
20260831121838 23 254 3.2 12.9 0.00 0.00 0.00 74 1013.4
20260831121509 23 247 1.6 12.9 0.00 0.00 0.00 74 1012.8
20260831121326 23 302 3.2 12.9 0.00 0.00 0.00 73 1013.3
20260831120814 23 319 3.2 14.5 0.00 0.00 0.00 73 1013.4
20260831120315 23 267 3.2 14.5 0.00 0.00 0.00 74 1013.3
20260831120034 23 250 1.6 12.9 0.00 0.00 0.00 74 1012.7
20260831115751 23 242 4.8 12.9 0.00 0.00 0.00 72 1013.2
20260831115237 23 239 3.2 11.3 0.00 0.00 0.00 75 1013.2
20260831114726 23 248 3.2 8.0 0.00 0.00 0.00 75 1013.2
20260831114559 23 248 3.2 8.0 0.00 0.00 0.00 74 1012.6
20260831114216 23 234 1.6 8.0 0.00 0.00 0.00 75 1013.2
20260831113703 23 119 1.6 4.8 0.00 0.00 0.00 77 1013.2
20260831113151 23 113 1.6 4.8 0.00 0.00 0.00 77 1013.3
20260831113023 22 112 0.0 3.2 0.00 0.00 0.00 78 1012.7
20260831112637 22 112 1.6 3.2 0.00 0.00 0.00 77 1013.2
20260831112127 22 112 1.6 4.8 0.00 0.00 0.00 77 1013.2
20260831111613 22 112 1.6 4.8 0.00 0.00 0.00 77 1013.3
20260831111550 22 112 0.0 3.2 0.00 0.00 0.00 77 1012.7
20260831111059 22 112 1.6 4.8 0.00 0.00 0.00 78 1013.3
20260831110556 22 112 3.2 4.8 0.00 0.00 0.00 77 1013.2
20260831110047 22 112 1.6 4.8 0.00 0.00 0.00 80 1013.2
20260831110010 21 112 1.6 4.8 0.00 0.00 0.00 80 1012.6
20260831105524 22 112 0.0 3.2 0.00 0.00 0.00 81 1013.1
20260831105011 21 111 0.0 1.6 0.00 0.00 0.00 82 1013.0
20260831104538 21 111 0.0 1.6 0.00 0.00 0.00 81 1012.5
20260831104457 21 111 0.0 1.6 0.00 0.00 0.00 81 1013.1
20260831103935 21 111 0.0 1.6 0.00 0.00 0.00 82 1013.1
20260831103418 21 111 0.0 1.6 0.00 0.00 0.00 83 1013.2
20260831103040 21 111 0.0 1.6 0.00 0.00 0.00 84 1012.6
20260831102347 21 111 0.0 3.2 0.00 0.00 0.00 85 1013.2
20260831101837 21 111 1.6 3.2 0.00 0.00 0.00 86 1013.2
20260831101503 21 111 0.0 3.2 0.00 0.00 0.00 86 1012.7
20260831101322 21 111 1.6 3.2 0.00 0.00 0.00 86 1013.3
20260831100810 21 111 0.0 1.6 0.00 0.00 0.00 86 1013.3
20260831100253 21 111 0.0 1.6 0.00 0.00 0.00 86 1013.4
20260831100028 21 111 0.0 1.6 0.00 0.00 0.00 86 1012.9
20260831095738 21 111 0.0 1.6 0.00 0.00 0.00 85 1013.5
20260831095224 21 111 0.0 1.6 0.00 0.00 0.00 85 1013.5
20260831094711 21 111 0.0 1.6 0.00 0.00 0.00 84 1013.5
20260831094543 21 111 0.0 0.0 0.00 0.00 0.00 84 1012.9
20260831094155 21 111 0.0 1.6 0.00 0.00 0.00 83 1013.4
20260831093638 21 111 0.0 3.2 0.00 0.00 0.00 80 1013.5
20260831093122 21 111 0.0 3.2 0.00 0.00 0.00 79 1013.4
20260831093101 21 111 0.0 1.6 0.00 0.00 0.00 79 1012.9
20260831092611 21 111 0.0 3.2 0.00 0.00 0.00 79 1013.4
20260831091547 21 113 1.6 3.2 0.00 0.00 0.00 80 1013.3
20260831091528 21 113 0.0 3.2 0.00 0.00 0.00 80 1012.7
20260831091050 21 113 0.0 3.2 0.00 0.00 0.00 82 1013.3
20260831090531 21 113 0.0 3.2 0.00 0.00 0.00 83 1013.2
20260831090059 21 113 0.0 3.2 0.00 0.00 0.00 84 1012.7
20260831090022 21 113 0.0 3.2 0.00 0.00 0.00 84 1013.2
20260831085505 21 113 0.0 3.2 0.00 0.00 0.00 85 1013.2
20260831084527 21 110 1.6 3.2 0.00 0.00 0.00 83 1012.5
20260831084437 21 110 0.0 3.2 0.00 0.00 0.00 83 1013.1
20260831083926 21 110 0.0 0.0 0.00 0.00 0.00 82 1013.0
20260831083412 21 110 0.0 0.0 0.00 0.00 0.00 81 1013.0
20260831083141 21 110 0.0 0.0 0.00 0.00 0.00 80 1012.4
20260831082900 21 110 0.0 1.6 0.00 0.00 0.00 79 1012.9
20260831082344 21 110 1.6 9.7 0.00 0.00 0.00 78 1012.8
20260831081832 21 110 1.6 9.7 0.00 0.00 0.00 75 1012.9
20260831081559 21 110 3.2 6.4 0.00 0.00 0.00 75 1012.4
20260831081316 21 115 3.2 9.7 0.00 0.00 0.00 75 1012.9
20260831080801 21 115 3.2 9.7 0.00 0.00 0.00 75 1013.0
20260831080246 21 125 3.2 6.4 0.00 0.00 0.00 75 1013.0
20260831080025 21 125 1.6 6.4 0.00 0.00 0.00 75 1012.5
20260831075732 21 123 3.2 8.0 0.00 0.00 0.00 75 1013.0
20260831075218 21 128 3.2 8.0 0.00 0.00 0.00 74 1012.9
20260831074704 21 132 4.8 8.0 0.00 0.00 0.00 74 1013.0
20260831074535 21 132 1.6 8.0 0.00 0.00 0.00 74 1012.4
20260831073633 21 116 4.8 9.7 0.00 0.00 0.00 73 1013.1
20260831073119 21 161 4.8 9.7 0.00 0.00 0.00 72 1013.2
20260831073054 21 161 1.6 9.7 0.00 0.00 0.00 72 1012.7
20260831072606 21 174 3.2 8.0 0.00 0.00 0.00 73 1013.3
20260831071545 21 167 3.2 6.4 0.00 0.00 0.00 74 1013.2
20260831071520 21 167 1.6 6.4 0.00 0.00 0.00 74 1012.7
20260831071029 21 117 4.8 6.4 0.00 0.00 0.00 74 1013.1
20260831070519 21 140 3.2 6.4 0.00 0.00 0.00 73 1013.1
20260831070056 21 99 3.2 6.4 0.00 0.00 0.00 73 1012.7
20260831070014 21 98 1.6 6.4 0.00 0.00 0.00 74 1013.2
20260831065504 21 191 1.6 4.8 0.00 0.00 0.00 75 1013.3
20260831064949 20 191 4.8 11.3 0.00 0.00 0.00 74 1013.4
20260831064516 20 218 1.6 9.7 0.00 0.00 0.00 75 1012.9
20260831064438 20 218 4.8 11.3 0.00 0.00 0.00 75 1013.4
20260831063933 20 163 4.8 11.3 0.00 0.00 0.00 76 1013.5
20260831063424 20 113 4.8 11.3 0.00 0.00 0.00 77 1013.5
20260831063101 19 144 3.2 11.3 0.00 0.00 0.00 80 1013.0
20260831062923 19 159 4.8 11.3 0.00 0.00 0.00 81 1013.4
20260831062419 19 126 3.2 11.3 0.00 0.00 0.00 84 1013.5
20260831061913 18 175 1.6 6.4 0.00 0.00 0.00 89 1013.5
20260831061542 17 184 1.6 6.4 0.00 0.00 0.00 92 1013.0
20260831061404 18 287 0.0 4.8 0.00 0.00 0.00 93 1013.6
20260831060852 17 291 0.0 3.2 0.00 0.00 0.00 96 1013.6
20260831060348 17 296 0.0 3.2 0.00 0.00 0.00 96 1013.5
20260831060129 16 296 0.0 3.2 0.00 0.00 0.00 96 1012.9
20260831055846 16 296 1.6 3.2 0.00 0.00 0.00 97 1013.4
20260831055342 16 296 1.6 3.2 0.00 0.00 0.00 97 1013.5
20260831054514 16 296 0.0 3.2 0.00 0.00 0.00 97 1013.0
20260831054336 16 296 0.0 0.0 0.00 0.00 0.00 97 1013.6
20260831053826 16 296 0.0 0.0 0.00 0.00 0.00 97 1013.5
20260831053312 16 296 0.0 0.0 0.00 0.00 0.00 97 1013.6
20260831053047 16 296 0.0 0.0 0.00 0.00 0.00 97 1013.1
20260831052803 16 296 0.0 3.2 0.00 0.00 0.00 97 1013.5
20260831052307 16 296 0.0 3.2 0.00 0.00 0.00 97 1013.5
20260831051756 15 296 0.0 3.2 0.00 0.00 0.00 97 1013.5
20260831051528 15 296 0.0 3.2 0.00 0.00 0.00 97 1013.0
20260831051244 15 296 1.6 3.2 0.00 0.00 0.00 97 1013.5
20260831050727 15 296 0.0 3.2 0.00 0.00 0.00 97 1013.5
20260831050221 15 296 0.0 1.6 0.00 0.00 0.00 97 1013.5
20260831050056 15 296 0.0 1.6 0.00 0.00 0.00 97 1013.0
20260831045200 15 296 0.0 1.6 0.00 0.00 0.00 97 1013.5
20260831044645 15 296 0.0 1.6 0.00 0.00 0.00 97 1013.4
20260831044622 14 296 0.0 1.6 0.00 0.03 0.00 97 1013.0
20260831043628 14 296 0.0 1.6 0.00 0.00 0.00 97 1013.4
20260831043127 14 296 0.0 0.0 0.00 0.00 0.00 97 1013.4
20260831043103 13 296 0.0 0.0 0.00 0.03 0.00 97 1013.0
20260831042615 14 296 0.0 0.0 0.00 0.00 0.00 97 1013.5
20260831041544 13 296 0.0 3.2 0.00 0.03 0.00 97 1013.0
20260831040529 13 296 0.0 0.0 0.00 0.03 0.00 97 1013.5
20260831040054 13 296 0.0 0.0 0.00 0.03 0.00 97 1013.1
20260831035507 13 296 0.0 0.0 0.00 0.03 0.00 97 1013.6
20260831034951 13 296 0.0 0.0 0.00 0.03 0.00 97 1013.6
20260831034519 13 296 0.0 0.0 0.00 0.03 0.00 97 1013.1
20260831033929 13 296 0.0 0.0 0.00 0.03 0.00 96 1013.6
20260831033417 13 296 0.0 0.0 0.00 0.03 0.00 96 1013.6
20260831033044 13 296 0.0 0.0 0.00 0.03 0.00 96 1013.2
20260831032351 13 296 0.0 0.0 0.00 0.03 0.00 96 1013.6
20260831031852 13 296 0.0 0.0 0.00 0.03 0.00 96 1013.7
20260831031521 13 296 0.0 0.0 0.00 0.03 0.00 96 1013.3
20260831031337 13 296 0.0 0.0 0.00 0.03 0.00 96 1013.7
20260831030826 13 296 0.0 0.0 0.00 0.03 0.00 96 1013.7
20260831030315 13 296 0.0 0.0 0.00 0.03 0.00 96 1013.6
20260831030050 13 296 0.0 0.0 0.00 0.03 0.00 96 1013.1
20260831025805 13 296 0.0 0.0 0.00 0.03 0.00 96 1013.7
20260831025253 13 296 0.0 0.0 0.00 0.03 0.00 96 1013.7
20260831024738 13 296 0.0 0.0 0.00 0.03 0.00 96 1013.6
20260831024510 13 296 0.0 0.0 0.00 0.03 0.00 96 1013.2
20260831024226 13 296 0.0 0.0 0.00 0.03 0.00 96 1013.6
20260831023717 13 296 0.0 0.0 0.00 0.03 0.00 96 1013.7
20260831023202 13 296 0.0 0.0 0.00 0.03 0.00 96 1013.9
20260831023034 13 296 0.0 0.0 0.00 0.03 0.00 96 1013.4
20260831021619 14 296 0.0 0.0 0.00 0.03 0.00 95 1013.9
20260831021554 13 296 0.0 0.0 0.00 0.03 0.00 95 1013.4
20260831021104 14 296 0.0 1.6 0.00 0.03 0.00 95 1014.0
20260831020546 14 296 0.0 1.6 0.00 0.03 0.00 96 1014.0
20260831020033 14 296 0.0 0.0 0.00 0.03 0.00 95 1014.0
20260831020006 13 296 0.0 0.0 0.00 0.03 0.00 95 1013.4
20260831015519 14 296 0.0 0.0 0.00 0.03 0.00 95 1014.0
20260831015006 14 296 0.0 0.0 0.00 0.03 0.00 95 1014.0
20260831014534 14 296 0.0 0.0 0.00 0.03 0.00 95 1013.5
20260831014445 14 296 0.0 0.0 0.00 0.03 0.00 95 1014.1
20260831013944 14 296 0.0 0.0 0.00 0.03 0.00 95 1014.1
20260831013431 14 296 0.0 0.0 0.00 0.03 0.00 95 1014.0
20260831013057 14 296 0.0 0.0 0.00 0.03 0.00 95 1013.5